Cork, Ireland

11:55 PM IST on May 25, 2017 (GMT +0100)
Cork

Weather History for EICK - March, 2014

Change the Weather History Date:

Saturday, March 29, 2014

  Actual Average Record
Temperature  
Mean Temperature 42 °F -  
Max Temperature 46 °F 53 °F 66 °F (2012)
Min Temperature 38 °F 40 °F 33 °F (2009)
Degree Days  
Heating Degree Days 23    
Moisture  
Dew Point 40 °F    
Average Humidity 94    
Maximum Humidity 100    
Minimum Humidity 77    
Precipitation  
Precipitation 0.28 in 0.09 in - ()
Sea Level Pressure  
Sea Level Pressure 29.76 in    
Wind  
Wind Speed 8 mph ()    
Max Wind Speed 16 mph    
Max Gust Speed -    
Visibility 6.4 miles    
Events Fog , Rain    
Averages and records for this station are not official NWS values.
T = Trace of Precipitation, MM = Missing Value Source: Averaged Metar Reports

Daily Weather History Graph

Daily Weather History Graph

Search for Another Location

Airport or City:

Trip Planner

Search our weather history database for the weather conditions in past years. The results will help you decide how hot, cold, wet, or windy it might be!

Date:

Astronomy

Mar. 29, 2014 Rise Set
Actual Time 6:16 AM GMT 7:02 PM GMT
Civil Twilight 5:42 AM GMT 7:36 PM GMT
Nautical Twilight 5:01 AM GMT 8:17 PM GMT
Astronomical Twilight 4:18 AM GMT 9:00 PM GMT
Moon 5:26 AM GMT (3/29) 5:45 PM GMT (3/29)
Length of Visible Light 13h 54m
Length of Day
12h 46m
Waning Crescent, 2% of the Moon is Illuminated
Mar 29
Waning Crescent
Mar 30
New
Apr 7
First Quarter
Apr 15
Full
Apr 22
Last Quarter

Hourly Weather History & Observations

Time (GMT) Temp. Windchill Dew Point Humidity Pressure Visibility Wind Dir Wind Speed Gust Speed Precip Events Conditions
12:00 AM 40 °F - 39 °F 95% 29.90 in 11 mi NNE 8.9 mph - - Rain Light Rain Showers
12:00 AM 41.0 °F 35.2 °F 39.2 °F 93% 29.86 in 6.2 mi NNE 9.2 mph - N/A   Mostly Cloudy
12:30 AM 41.0 °F 34.3 °F 39.2 °F 93% 29.86 in 5.0 mi NNE 11.5 mph - N/A Rain Light Rain Showers
1:00 AM 40 °F - 39 °F 95% 29.89 in 4 mi NE 8.9 mph - - Rain Light Rain Showers
1:00 AM 41.0 °F 35.2 °F 39.2 °F 93% 29.86 in 4.3 mi NE 9.2 mph - N/A Rain Light Rain Showers
1:30 AM 39.2 °F 33.0 °F 37.4 °F 93% 29.86 in 6.2 mi East 9.2 mph - N/A Rain Light Rain Showers
2:00 AM 39 °F - 38 °F 94% 29.87 in 14 mi NE 11.2 mph - - Rain Light Rain Showers
2:00 AM 39.2 °F 32.5 °F 37.4 °F 93% 29.83 in 6.2 mi NE 10.4 mph - N/A   Mostly Cloudy
2:30 AM 39.2 °F 32.5 °F 39.2 °F 100% 29.83 in 6.2 mi NNE 10.4 mph - N/A   Mostly Cloudy
3:00 AM 39 °F - 38 °F 96% 29.85 in 16 mi NNE 8.9 mph - - Rain Light Rain Showers
3:00 AM 39.2 °F 33.6 °F 39.2 °F 100% 29.83 in 6.2 mi NNE 8.1 mph - N/A   Mostly Cloudy
3:30 AM 39.2 °F 33.0 °F 39.2 °F 100% 29.80 in 6.2 mi NNE 9.2 mph - N/A   Mostly Cloudy
4:00 AM 39 °F - 38 °F 95% 29.83 in 7 mi NNE 8.9 mph - - Rain Light Rain Showers
4:00 AM 39.2 °F 33.0 °F 37.4 °F 93% 29.80 in 6.2 mi NNE 9.2 mph - N/A Rain Light Rain Showers
4:30 AM 39.2 °F 33.0 °F 39.2 °F 100% 29.80 in 2.5 mi NE 9.2 mph - N/A   Mostly Cloudy
5:00 AM 40 °F - 39 °F 94% 29.82 in 7 mi ENE 8.9 mph - - Rain Light Rain Showers
5:00 AM 39.2 °F 33.0 °F 39.2 °F 100% 29.80 in 6.2 mi ENE 9.2 mph - N/A   Mostly Cloudy
5:30 AM 39.2 °F 33.0 °F 39.2 °F 100% 29.80 in 6.2 mi East 9.2 mph - N/A Rain Light Rain Showers
6:00 AM 39 °F - 38 °F 97% 29.83 in 16 mi ENE 8.9 mph - - Rain Light Rain Showers
6:00 AM 39.2 °F 33.0 °F 39.2 °F 100% 29.80 in 6.2 mi ENE 9.2 mph - N/A   Mostly Cloudy
6:30 AM 39.2 °F 33.0 °F 39.2 °F 100% 29.80 in 6.2 mi East 9.2 mph - N/A Rain Light Rain Showers
7:00 AM 40 °F - 39 °F 94% 29.82 in 16 mi East 8.9 mph - - Rain Light Rain Showers
7:00 AM 39.2 °F 33.6 °F 39.2 °F 100% 29.80 in 6.2 mi East 8.1 mph - N/A   Mostly Cloudy
7:30 AM 39.2 °F 35.0 °F 39.2 °F 100% 29.80 in 6.2 mi ENE 5.8 mph - N/A   Mostly Cloudy
8:00 AM 41 °F - 40 °F 96% 29.82 in 16 mi East 6.7 mph - -   Mostly Cloudy
8:00 AM 41.0 °F 36.4 °F 41.0 °F 100% 29.80 in 6.2 mi East 6.9 mph - N/A   Mostly Cloudy
8:30 AM 42.8 °F 38.0 °F 41.0 °F 93% 29.80 in 6.2 mi ESE 8.1 mph - N/A   Mostly Cloudy
9:00 AM 45 °F - 42 °F 86% 29.81 in 12 mi SE 11.2 mph - -   Partly Cloudy
9:00 AM 44.6 °F 38.8 °F 42.8 °F 93% 29.80 in 6.2 mi SE 11.5 mph - N/A   Mostly Cloudy
9:30 AM 44.6 °F 37.4 °F 42.8 °F 93% 29.80 in 6.2 mi SE 16.1 mph - N/A   Mostly Cloudy
10:00 AM 45 °F - 41 °F 82% 29.81 in 16 mi SE 15.7 mph - -   Mostly Cloudy
10:00 AM 44.6 °F 37.8 °F 41.0 °F 87% 29.80 in 6.2 mi SE 15.0 mph - N/A   Mostly Cloudy
10:30 AM 44.6 °F 37.8 °F 41.0 °F 87% 29.80 in 6.2 mi SE 15.0 mph - N/A   Mostly Cloudy
11:00 AM 46 °F - 42 °F 79% 29.81 in 19 mi SE 13.4 mph - -   Mostly Cloudy
11:00 AM 46.4 °F 40.4 °F 41.0 °F 81% 29.77 in 6.2 mi SE 13.8 mph - N/A   Mostly Cloudy
11:30 AM 46.4 °F 41.1 °F 41.0 °F 81% 29.77 in 6.2 mi ESE 11.5 mph - N/A   Mostly Cloudy
12:00 PM 46 °F - 41 °F 77% 29.80 in 25 mi ESE 13.4 mph - -   Partly Cloudy
12:00 PM 46.4 °F 40.4 °F 41.0 °F 81% 29.77 in 6.2 mi ESE 13.8 mph - N/A   Mostly Cloudy
12:30 PM 46.4 °F 40.4 °F 41.0 °F 81% 29.77 in 6.2 mi ESE 13.8 mph - N/A   Mostly Cloudy
1:00 PM 44 °F - 41 °F 87% 29.78 in 22 mi ESE 11.2 mph - - Rain Light Rain
1:00 PM 44.6 °F 39.2 °F 41.0 °F 87% 29.77 in 6.2 mi ESE 10.4 mph - N/A   Mostly Cloudy
1:30 PM 42.8 °F 37.0 °F 42.8 °F 100% 29.77 in 6.2 mi ESE 10.4 mph - N/A Rain Light Rain
2:00 PM 43 °F - 41 °F 90% 29.77 in 12 mi East 13.4 mph - - Rain Rain
2:00 PM 42.8 °F 36.2 °F 41.0 °F 93% 29.74 in 6.2 mi East 12.7 mph - N/A Rain Light Rain
2:30 PM 42.8 °F 37.0 °F 41.0 °F 93% 29.74 in 6.2 mi ESE 10.4 mph - N/A Rain Light Rain
3:00 PM 43 °F - 41 °F 92% 29.75 in 12 mi ESE 8.9 mph - - Rain Light Rain
3:00 PM 42.8 °F 37.5 °F 41.0 °F 93% 29.74 in 6.2 mi ESE 9.2 mph - N/A Rain Light Rain
3:30 PM 42.8 °F - 39.2 °F 87% 29.71 in 6.2 mi ESE 1.2 mph - N/A Rain Light Rain
4:00 PM 43 °F - 41 °F 89% 29.73 in 12 mi North 2.2 mph - - Rain Light Rain
4:00 PM 42.8 °F - 39.2 °F 87% 29.68 in 6.2 mi North 2.3 mph - N/A Rain Light Rain
4:30 PM 42.8 °F 40.1 °F 39.2 °F 87% 29.68 in 6.2 mi NNW 4.6 mph - N/A Rain Light Rain
5:00 PM 41.0 °F 36.4 °F 41.0 °F 100% 29.68 in 6.2 mi NNW 6.9 mph - N/A Rain Light Rain
5:30 PM 41.0 °F 38.0 °F 41.0 °F 100% 29.68 in 5.0 mi NW 4.6 mph - N/A Rain Light Rain
6:00 PM 41 °F - 40 °F 96% 29.69 in 4 mi NW 6.7 mph - - Rain Light Rain
6:00 PM 41.0 °F 36.4 °F 41.0 °F 100% 29.65 in 4.3 mi NW 6.9 mph - N/A Rain Light Rain
6:30 PM 41.0 °F 35.8 °F 41.0 °F 100% 29.65 in 3.1 mi NW 8.1 mph - N/A Rain Light Rain
7:00 PM 41 °F - 40 °F 96% 29.68 in 2 mi NW 6.7 mph - - Rain Light Rain
7:00 PM 41.0 °F 36.4 °F 41.0 °F 100% 29.65 in 2.2 mi NW 6.9 mph - N/A Rain Light Rain
7:30 PM 41.0 °F 36.4 °F 41.0 °F 100% 29.65 in 1.4 mi NW 6.9 mph - N/A Rain Light Rain
8:00 PM 42 °F - 41 °F 94% 29.67 in 1 mi NW 6.7 mph - - Rain Light Rain
8:00 PM 41.0 °F 36.4 °F 41.0 °F 100% 29.65 in 1.4 mi NW 6.9 mph - N/A Rain Light Rain
8:30 PM 41.0 °F 38.0 °F 41.0 °F 100% 29.62 in 1.4 mi NW 4.6 mph - N/A Rain Light Rain
9:00 PM 43 °F - 43 °F 98% 29.65 in 1 mi WSW 4.5 mph - - Rain Light Rain
9:00 PM 42.8 °F 41.1 °F 42.8 °F 100% 29.62 in 1.1 mi WSW 3.5 mph - N/A Rain Light Rain
9:30 PM 41.0 °F 38.0 °F 41.0 °F 100% 29.62 in 1.4 mi SW 4.6 mph - N/A Rain Light Rain
10:00 PM 42 °F - 41 °F 95% 29.66 in 2 mi SW 4.5 mph - - Rain Light Rain
10:00 PM 41.0 °F 39.0 °F 41.0 °F 100% 29.62 in 2.5 mi SW 3.5 mph - N/A Rain Light Rain
10:30 PM 41.0 °F 39.0 °F 41.0 °F 100% 29.62 in 3.1 mi SSW 3.5 mph - N/A Rain Light Rain
11:00 PM 41 °F - 41 °F 99% 29.67 in 1 mi SSE 2.2 mph - - Rain Light Rain
11:00 PM 41.0 °F - 41.0 °F 100% 29.62 in 0.7 mi SSE 2.3 mph - N/A Rain Light Rain
11:30 PM 41.0 °F 39.0 °F 41.0 °F 100% 29.65 in 0.3 mi South 3.5 mph - N/A Fog Fog